Time,TemperatureF,DewpointF,PressureIn,WindDirection,WindDirectionDegrees,WindSpeedMPH,WindSpeedGustMPH,Humidity,HourlyPrecipIn,Conditions,Clouds,dailyrainin,SoftwareType,DateUTC
2013-07-25 06:05:00,52.1,51.0,30.09,East,90,0.0,0.0,96,0.00,,,0.00,Wunderground v.1.15,2013-07-25 11:05:00,
2013-07-25 06:10:00,52.1,51.0,30.09,East,90,0.0,0.0,96,0.00,,,0.00,Wunderground v.1.15,2013-07-25 11:10:00,
2013-07-25 06:15:00,52.1,51.0,30.10,East,91,0.0,0.0,96,0.00,,,0.00,Wunderground v.1.15,2013-07-25 11:15:00,
2013-07-25 06:20:00,51.9,50.5,30.09,East,91,0.0,0.0,95,0.00,,,0.00,Wunderground v.1.15,2013-07-25 11:20:00,
2013-07-25 06:25:00,51.8,50.4,30.10,East,91,0.0,0.0,95,0.00,,,0.00,Wunderground v.1.15,2013-07-25 11:25:00,
2013-07-25 06:30:00,51.5,50.1,30.10,East,91,0.0,0.0,95,0.00,,,0.00,Wunderground v.1.15,2013-07-25 11:30:00,
2013-07-25 06:35:00,51.5,50.1,30.10,East,91,0.0,0.0,95,0.00,,,0.00,Wunderground v.1.15,2013-07-25 11:35:00,
2013-07-25 06:40:00,51.6,50.2,30.10,East,91,0.0,0.0,95,0.00,,,0.00,Wunderground v.1.15,2013-07-25 11:40:00,
2013-07-25 06:45:00,51.8,50.7,30.10,East,91,0.0,0.0,96,0.00,,,0.00,Wunderground v.1.15,2013-07-25 11:45:00,
2013-07-25 06:50:00,52.0,50.9,30.10,East,91,0.0,0.0,96,0.00,,,0.00,Wunderground v.1.15,2013-07-25 11:50:00,
2013-07-25 06:55:00,52.3,51.2,30.10,East,91,0.0,0.0,96,0.00,,,0.00,Wunderground v.1.15,2013-07-25 11:55:00,
2013-07-25 07:00:00,53.0,51.9,30.10,East,91,0.0,0.0,96,0.00,,,0.00,Wunderground v.1.15,2013-07-25 12:00:00,
2013-07-25 07:05:00,53.7,52.6,30.10,ENE,74,0.0,1.0,96,0.00,,,0.00,Wunderground v.1.15,2013-07-25 12:05:00,
2013-07-25 07:10:00,54.4,53.3,30.10,NNW,348,1.0,3.0,96,0.00,,,0.00,Wunderground v.1.15,2013-07-25 12:10:00,
2013-07-25 07:15:00,55.1,54.0,30.11,North,349,1.0,3.0,96,0.00,,,0.00,Wunderground v.1.15,2013-07-25 12:15:00,
2013-07-25 07:20:00,55.9,54.5,30.11,North,349,0.0,0.0,95,0.00,,,0.00,Wunderground v.1.15,2013-07-25 12:20:00,
2013-07-25 07:25:00,56.6,55.2,30.11,North,349,0.0,1.0,95,0.00,,,0.00,Wunderground v.1.15,2013-07-25 12:25:00,
2013-07-25 07:30:00,57.2,55.5,30.11,North,349,0.0,0.0,94,0.00,,,0.00,Wunderground v.1.15,2013-07-25 12:30:00,
2013-07-25 07:35:00,57.8,55.8,30.11,NNW,347,1.0,1.0,93,0.00,,,0.00,Wunderground v.1.15,2013-07-25 12:35:00,
2013-07-25 07:40:00,58.4,56.1,30.11,NNW,347,1.0,1.0,92,0.00,,,0.00,Wunderground v.1.15,2013-07-25 12:40:00,
2013-07-25 07:45:00,59.0,56.7,30.11,NNW,347,0.0,1.0,92,0.00,,,0.00,Wunderground v.1.15,2013-07-25 12:45:00,
2013-07-25 07:50:00,59.5,57.2,30.12,WNW,300,1.0,1.0,92,0.00,,,0.00,Wunderground v.1.15,2013-07-25 12:50:00,
2013-07-25 07:55:00,59.9,57.6,30.11,WNW,300,1.0,1.0,92,0.00,,,0.00,Wunderground v.1.15,2013-07-25 12:55:00,
2013-07-25 08:00:00,60.5,57.9,30.12,NNW,340,1.0,1.0,91,0.00,,,0.00,Wunderground v.1.15,2013-07-25 13:00:00,
2013-07-25 08:05:00,60.9,57.9,30.12,NW,317,1.0,1.0,90,0.00,,,0.00,Wunderground v.1.15,2013-07-25 13:05:00,
2013-07-25 08:10:00,61.5,58.5,30.13,NNW,335,0.0,0.0,90,0.00,,,0.00,Wunderground v.1.15,2013-07-25 13:10:00,
2013-07-25 08:15:00,62.1,58.8,30.14,NNW,335,0.0,1.0,89,0.00,,,0.00,Wunderground v.1.15,2013-07-25 13:15:00,
2013-07-25 08:20:00,62.7,59.1,30.14,NW,305,1.0,1.0,88,0.00,,,0.00,Wunderground v.1.15,2013-07-25 13:20:00,
2013-07-25 08:25:00,63.0,58.7,30.13,NNW,331,1.0,1.0,86,0.00,,,0.00,Wunderground v.1.15,2013-07-25 13:25:00,
2013-07-25 08:30:00,63.4,58.8,30.13,North,350,1.0,4.0,85,0.00,,,0.00,Wunderground v.1.15,2013-07-25 13:30:00,
2013-07-25 08:35:00,63.6,58.3,30.12,North,5,2.0,4.0,83,0.00,,,0.00,Wunderground v.1.15,2013-07-25 13:35:00,
2013-07-25 08:40:00,63.8,58.9,30.12,NW,314,2.0,2.0,84,0.00,,,0.00,Wunderground v.1.15,2013-07-25 13:40:00,
2013-07-25 08:45:00,64.4,59.1,30.12,NNE,32,0.0,2.0,83,0.00,,,0.00,Wunderground v.1.15,2013-07-25 13:45:00,
2013-07-25 08:50:00,64.8,59.2,30.12,East,86,0.0,2.0,82,0.00,,,0.00,Wunderground v.1.15,2013-07-25 13:50:00,
2013-07-25 08:55:00,65.0,59.0,30.11,East,86,0.0,3.0,81,0.00,,,0.00,Wunderground v.1.15,2013-07-25 13:55:00,
2013-07-25 09:00:00,65.1,59.1,30.11,East,86,0.0,1.0,81,0.00,,,0.00,Wunderground v.1.15,2013-07-25 14:00:00,
2013-07-25 09:05:00,65.3,59.0,30.11,NE,35,0.0,1.0,80,0.00,,,0.00,Wunderground v.1.15,2013-07-25 14:05:00,
2013-07-25 09:10:00,65.5,58.8,30.12,NE,35,0.0,0.0,79,0.00,,,0.00,Wunderground v.1.15,2013-07-25 14:10:00,
2013-07-25 09:15:00,65.8,59.5,30.11,NNW,329,0.0,1.0,80,0.00,,,0.00,Wunderground v.1.15,2013-07-25 14:15:00,
2013-07-25 09:20:00,66.2,59.1,30.11,NNW,333,1.0,1.0,78,0.00,,,0.00,Wunderground v.1.15,2013-07-25 14:20:00,
2013-07-25 09:25:00,66.5,59.8,30.11,NW,310,1.0,1.0,79,0.00,,,0.00,Wunderground v.1.15,2013-07-25 14:25:00,
2013-07-25 09:30:00,66.9,59.5,30.11,NNE,16,1.0,2.0,77,0.00,,,0.00,Wunderground v.1.15,2013-07-25 14:30:00,
2013-07-25 09:35:00,67.3,59.8,30.11,WNW,288,1.0,3.0,77,0.00,,,0.00,Wunderground v.1.15,2013-07-25 14:35:00,
2013-07-25 09:40:00,67.7,59.5,30.12,NNE,32,1.0,1.0,75,0.00,,,0.00,Wunderground v.1.15,2013-07-25 14:40:00,
2013-07-25 09:45:00,68.0,59.0,30.12,NNE,33,1.0,1.0,73,0.00,,,0.00,Wunderground v.1.15,2013-07-25 14:45:00,
2013-07-25 09:50:00,68.3,60.1,30.11,NNW,338,0.0,1.0,75,0.00,,,0.00,Wunderground v.1.15,2013-07-25 14:50:00,
2013-07-25 09:55:00,68.7,59.3,30.11,NNW,333,1.0,3.0,72,0.00,,,0.00,Wunderground v.1.15,2013-07-25 14:55:00,
2013-07-25 10:00:00,69.1,59.3,30.12,NNW,333,1.0,1.0,71,0.00,,,0.00,Wunderground v.1.15,2013-07-25 15:00:00,
2013-07-25 10:05:00,69.4,59.2,30.12,NNW,328,1.0,1.0,70,0.00,,,0.00,Wunderground v.1.15,2013-07-25 15:05:00,
2013-07-25 10:10:00,69.7,59.9,30.12,NNW,329,1.0,1.0,71,0.00,,,0.00,Wunderground v.1.15,2013-07-25 15:10:00,
2013-07-25 10:15:00,70.0,59.4,30.12,NNW,329,1.0,1.0,69,0.00,,,0.00,Wunderground v.1.15,2013-07-25 15:15:00,
2013-07-25 10:20:00,70.1,59.0,30.12,NNW,334,1.0,1.0,68,0.00,,,0.00,Wunderground v.1.15,2013-07-25 15:20:00,
2013-07-25 10:25:00,70.3,58.8,30.12,North,5,0.0,1.0,67,0.00,,,0.00,Wunderground v.1.15,2013-07-25 15:25:00,
2013-07-25 10:30:00,70.6,59.1,30.12,ENE,63,1.0,2.0,67,0.00,,,0.00,Wunderground v.1.15,2013-07-25 15:30:00,
2013-07-25 10:35:00,70.6,58.7,30.12,ENE,76,1.0,2.0,66,0.00,,,0.00,Wunderground v.1.15,2013-07-25 15:35:00,
2013-07-25 10:40:00,70.7,59.6,30.11,NNW,340,1.0,1.0,68,0.00,,,0.00,Wunderground v.1.15,2013-07-25 15:40:00,
2013-07-25 10:45:00,71.1,60.0,30.12,ENE,78,1.0,1.0,68,0.00,,,0.00,Wunderground v.1.15,2013-07-25 15:45:00,
2013-07-25 10:50:00,71.7,58.4,30.12,ENE,77,0.0,0.0,63,0.00,,,0.00,Wunderground v.1.15,2013-07-25 15:50:00,
2013-07-25 10:55:00,72.2,59.3,30.12,NE,47,0.0,1.0,64,0.00,,,0.00,Wunderground v.1.15,2013-07-25 15:55:00,
2013-07-25 11:00:00,72.2,58.9,30.12,NW,323,1.0,1.0,63,0.00,,,0.00,Wunderground v.1.15,2013-07-25 16:00:00,
2013-07-25 11:05:00,72.4,60.8,30.11,NW,318,0.0,1.0,67,0.00,,,0.00,Wunderground v.1.15,2013-07-25 16:05:00,
2013-07-25 11:10:00,72.7,59.4,30.11,WNW,285,1.0,1.0,63,0.00,,,0.00,Wunderground v.1.15,2013-07-25 16:10:00,
2013-07-25 11:15:00,72.9,60.4,30.11,West,281,1.0,1.0,65,0.00,,,0.00,Wunderground v.1.15,2013-07-25 16:15:00,
2013-07-25 11:20:00,73.3,60.4,30.12,WSW,251,1.0,1.0,64,0.00,,,0.00,Wunderground v.1.15,2013-07-25 16:20:00,
2013-07-25 11:25:00,73.5,59.7,30.12,SW,234,1.0,1.0,62,0.00,,,0.00,Wunderground v.1.15,2013-07-25 16:25:00,
2013-07-25 11:30:00,73.6,59.8,30.12,WSW,244,1.0,3.0,62,0.00,,,0.00,Wunderground v.1.15,2013-07-25 16:30:00,
2013-07-25 11:40:00,73.8,60.9,30.12,NW,322,2.0,2.0,64,0.00,,,0.00,Wunderground v.1.15,2013-07-25 16:40:00,
2013-07-25 11:45:00,74.0,60.6,30.12,West,278,2.0,6.0,63,0.00,,,0.00,Wunderground v.1.15,2013-07-25 16:45:00,
2013-07-25 11:50:00,74.0,58.3,30.12,SSW,210,2.0,2.0,58,0.00,,,0.00,Wunderground v.1.15,2013-07-25 16:50:00,
2013-07-25 11:55:00,74.0,59.2,30.12,WSW,251,1.0,3.0,60,0.00,,,0.00,Wunderground v.1.15,2013-07-25 16:55:00,
2013-07-25 12:00:00,74.4,59.1,30.12,SW,236,1.0,2.0,59,0.00,,,0.00,Wunderground v.1.15,2013-07-25 17:00:00,
2013-07-25 12:05:00,74.8,58.5,30.12,SW,225,0.0,2.0,57,0.00,,,0.00,Wunderground v.1.15,2013-07-25 17:05:00,
2013-07-25 12:10:00,75.0,60.2,30.12,SW,225,1.0,1.0,60,0.00,,,0.00,Wunderground v.1.15,2013-07-25 17:10:00,
2013-07-25 12:15:00,75.1,59.8,30.11,SW,225,0.0,1.0,59,0.00,,,0.00,Wunderground v.1.15,2013-07-25 17:15:00,
2013-07-25 12:20:00,75.5,60.6,30.11,SW,225,0.0,0.0,60,0.00,,,0.00,Wunderground v.1.15,2013-07-25 17:20:00,
2013-07-25 12:25:00,76.0,59.2,30.11,East,95,0.0,2.0,56,0.00,,,0.00,Wunderground v.1.15,2013-07-25 17:25:00,
2013-07-25 12:30:00,76.0,57.6,30.11,East,91,1.0,1.0,53,0.00,,,0.00,Wunderground v.1.15,2013-07-25 17:30:00,
2013-07-25 12:35:00,75.7,56.3,30.11,NE,42,1.0,1.0,51,0.00,,,0.00,Wunderground v.1.15,2013-07-25 17:35:00,
2013-07-25 12:40:00,75.7,55.7,30.11,East,88,1.0,1.0,50,0.00,,,0.00,Wunderground v.1.15,2013-07-25 17:40:00,
2013-07-25 12:45:00,75.9,57.5,30.11,NW,319,1.0,1.0,53,0.00,,,0.00,Wunderground v.1.15,2013-07-25 17:45:00,
2013-07-25 12:50:00,76.0,57.6,30.11,WNW,296,1.0,1.0,53,0.00,,,0.00,Wunderground v.1.15,2013-07-25 17:50:00,
2013-07-25 12:55:00,76.1,57.2,30.11,SSE,159,1.0,6.0,52,0.00,,,0.00,Wunderground v.1.15,2013-07-25 17:55:00,
2013-07-25 13:00:00,75.8,55.3,30.11,NNW,339,1.0,1.0,49,0.00,,,0.00,Wunderground v.1.15,2013-07-25 18:00:00,
2013-07-25 13:05:00,76.0,55.5,30.11,NW,325,1.0,1.0,49,0.00,,,0.00,Wunderground v.1.15,2013-07-25 18:05:00,
2013-07-25 13:10:00,76.0,56.6,30.11,SW,215,1.0,1.0,51,0.00,,,0.00,Wunderground v.1.15,2013-07-25 18:10:00,
2013-07-25 13:15:00,76.2,57.3,30.11,SSE,166,1.0,3.0,52,0.00,,,0.00,Wunderground v.1.15,2013-07-25 18:15:00,
2013-07-25 13:20:00,76.5,56.5,30.11,SSW,203,2.0,2.0,50,0.00,,,0.00,Wunderground v.1.15,2013-07-25 18:20:00,
2013-07-25 13:25:00,76.8,57.3,30.11,South,187,2.0,2.0,51,0.00,,,0.00,Wunderground v.1.15,2013-07-25 18:25:00,
2013-07-25 13:30:00,77.1,58.1,30.11,South,180,1.0,1.0,52,0.00,,,0.00,Wunderground v.1.15,2013-07-25 18:30:00,
2013-07-25 13:35:00,77.5,55.7,30.11,East,84,1.0,1.0,47,0.00,,,0.00,Wunderground v.1.15,2013-07-25 18:35:00,
2013-07-25 13:40:00,77.5,55.7,30.11,NNW,329,1.0,2.0,47,0.00,,,0.00,Wunderground v.1.15,2013-07-25 18:40:00,
2013-07-25 13:45:00,77.2,54.8,30.11,SW,229,2.0,2.0,46,0.00,,,0.00,Wunderground v.1.15,2013-07-25 18:45:00,
2013-07-25 13:50:00,77.1,56.5,30.11,WSW,240,1.0,1.0,49,0.00,,,0.00,Wunderground v.1.15,2013-07-25 18:50:00,
2013-07-25 13:55:00,77.3,57.8,30.11,North,355,1.0,3.0,51,0.00,,,0.00,Wunderground v.1.15,2013-07-25 18:55:00,
2013-07-25 14:00:00,77.8,55.4,30.10,WNW,298,1.0,1.0,46,0.00,,,0.00,Wunderground v.1.15,2013-07-25 19:00:00,
2013-07-25 14:05:00,77.9,56.0,30.10,East,84,1.0,3.0,47,0.00,,,0.00,Wunderground v.1.15,2013-07-25 19:05:00,
2013-07-25 14:10:00,78.2,56.3,30.10,ENE,68,1.0,1.0,47,0.00,,,0.00,Wunderground v.1.15,2013-07-25 19:10:00,
2013-07-25 14:15:00,78.5,56.6,30.10,ENE,67,1.0,1.0,47,0.00,,,0.00,Wunderground v.1.15,2013-07-25 19:15:00,
2013-07-25 14:20:00,78.9,56.4,30.10,North,360,1.0,1.0,46,0.00,,,0.00,Wunderground v.1.15,2013-07-25 19:20:00,
2013-07-25 14:25:00,79.0,57.0,30.10,WSW,243,1.0,1.0,47,0.00,,,0.00,Wunderground v.1.15,2013-07-25 19:25:00,
2013-07-25 14:30:00,79.0,58.2,30.10,WSW,239,1.0,2.0,49,0.00,,,0.00,Wunderground v.1.15,2013-07-25 19:30:00,
2013-07-25 14:35:00,78.8,56.3,30.10,WSW,239,1.0,2.0,46,0.00,,,0.00,Wunderground v.1.15,2013-07-25 19:35:00,
2013-07-25 14:40:00,78.7,56.8,30.10,South,187,1.0,3.0,47,0.00,,,0.00,Wunderground v.1.15,2013-07-25 19:40:00,
2013-07-25 14:45:00,78.4,57.7,30.10,West,265,2.0,7.0,49,0.00,,,0.00,Wunderground v.1.15,2013-07-25 19:45:00,
2013-07-25 14:50:00,78.2,55.7,30.09,West,261,2.0,2.0,46,0.00,,,0.00,Wunderground v.1.15,2013-07-25 19:50:00,
2013-07-25 14:55:00,78.4,57.7,30.09,WSW,237,1.0,4.0,49,0.00,,,0.00,Wunderground v.1.15,2013-07-25 19:55:00,
2013-07-25 15:00:00,78.7,57.9,30.09,NW,317,1.0,1.0,49,0.00,,,0.00,Wunderground v.1.15,2013-07-25 20:00:00,
2013-07-25 15:10:00,79.0,58.2,30.09,NNW,344,1.0,4.0,49,0.00,,,0.00,Wunderground v.1.15,2013-07-25 20:10:00,
2013-07-25 15:15:00,79.0,59.3,30.08,North,355,2.0,4.0,51,0.00,,,0.00,Wunderground v.1.15,2013-07-25 20:15:00,
2013-07-25 15:20:00,79.2,56.6,30.08,North,350,2.0,2.0,46,0.00,,,0.00,Wunderground v.1.15,2013-07-25 20:20:00,
2013-07-25 15:25:00,79.4,58.0,30.08,NNW,342,1.0,2.0,48,0.00,,,0.00,Wunderground v.1.15,2013-07-25 20:25:00,
2013-07-25 15:30:00,79.5,58.1,30.08,NNW,327,1.0,1.0,48,0.00,,,0.00,Wunderground v.1.15,2013-07-25 20:30:00,
2013-07-25 15:35:00,79.6,58.2,30.08,NW,320,0.0,1.0,48,0.00,,,0.00,Wunderground v.1.15,2013-07-25 20:35:00,
2013-07-25 15:40:00,79.9,57.9,30.07,NW,321,0.0,0.0,47,0.00,,,0.00,Wunderground v.1.15,2013-07-25 20:40:00,
2013-07-25 15:45:00,80.2,58.7,30.07,North,9,0.0,2.0,48,0.00,,,0.00,Wunderground v.1.15,2013-07-25 20:45:00,
2013-07-25 15:50:00,80.1,58.0,30.07,North,11,0.0,2.0,47,0.00,,,0.00,Wunderground v.1.15,2013-07-25 20:50:00,
2013-07-25 15:55:00,80.4,58.3,30.07,NW,311,1.0,7.0,47,0.00,,,0.00,Wunderground v.1.15,2013-07-25 20:55:00,
2013-07-25 16:00:00,80.4,58.3,30.07,NNE,14,1.0,1.0,47,0.00,,,0.00,Wunderground v.1.15,2013-07-25 21:00:00,
2013-07-25 16:05:00,80.2,58.7,30.07,South,186,1.0,3.0,48,0.00,,,0.00,Wunderground v.1.15,2013-07-25 21:05:00,
2013-07-25 16:10:00,79.8,57.2,30.06,SSW,195,2.0,2.0,46,0.00,,,0.00,Wunderground v.1.15,2013-07-25 21:10:00,
2013-07-25 16:15:00,79.9,59.0,30.06,SSW,198,1.0,3.0,49,0.00,,,0.00,Wunderground v.1.15,2013-07-25 21:15:00,
2013-07-25 16:20:00,80.0,58.5,30.06,SSW,198,1.0,2.0,48,0.00,,,0.00,Wunderground v.1.15,2013-07-25 21:20:00,
2013-07-25 16:25:00,79.9,57.3,30.06,SSW,197,1.0,2.0,46,0.00,,,0.00,Wunderground v.1.15,2013-07-25 21:25:00,
2013-07-25 16:30:00,80.0,60.2,30.06,SSW,197,1.0,1.0,51,0.00,,,0.00,Wunderground v.1.15,2013-07-25 21:30:00,
2013-07-25 16:35:00,80.2,58.7,30.06,SSW,197,0.0,1.0,48,0.00,,,0.00,Wunderground v.1.15,2013-07-25 21:35:00,
2013-07-25 16:40:00,80.5,58.4,30.06,SSW,197,0.0,0.0,47,0.00,,,0.00,Wunderground v.1.15,2013-07-25 21:40:00,
2013-07-25 16:45:00,80.8,59.3,30.06,SSW,197,0.0,0.0,48,0.00,,,0.00,Wunderground v.1.15,2013-07-25 21:45:00,
2013-07-25 16:50:00,80.8,59.3,30.06,SSW,209,1.0,1.0,48,0.00,,,0.00,Wunderground v.1.15,2013-07-25 21:50:00,
2013-07-25 16:55:00,80.7,58.0,30.06,SSE,157,1.0,3.0,46,0.00,,,0.00,Wunderground v.1.15,2013-07-25 21:55:00,
2013-07-25 17:00:00,80.5,59.0,30.06,South,182,1.0,1.0,48,0.00,,,0.00,Wunderground v.1.15,2013-07-25 22:00:00,
2013-07-25 17:05:00,80.4,57.7,30.06,SW,226,1.0,3.0,46,0.00,,,0.00,Wunderground v.1.15,2013-07-25 22:05:00,
2013-07-25 17:10:00,80.0,58.5,30.06,SW,230,1.0,1.0,48,0.00,,,0.00,Wunderground v.1.15,2013-07-25 22:10:00,
2013-07-25 17:15:00,79.7,57.7,30.07,SW,232,1.0,1.0,47,0.00,,,0.00,Wunderground v.1.15,2013-07-25 22:15:00,
2013-07-25 17:25:00,79.4,60.2,30.06,SSW,201,1.0,5.0,52,0.00,,,0.00,Wunderground v.1.15,2013-07-25 22:25:00,
2013-07-25 17:30:00,79.0,59.9,30.06,SSW,203,2.0,2.0,52,0.00,,,0.00,Wunderground v.1.15,2013-07-25 22:30:00,
2013-07-25 17:35:00,78.6,60.0,30.06,SSW,211,2.0,4.0,53,0.00,,,0.00,Wunderground v.1.15,2013-07-25 22:35:00,
2013-07-25 17:40:00,77.8,58.2,30.06,SSW,194,3.0,3.0,51,0.00,,,0.00,Wunderground v.1.15,2013-07-25 22:40:00,
2013-07-25 17:45:00,77.7,59.7,30.06,SSW,194,2.0,3.0,54,0.00,,,0.00,Wunderground v.1.15,2013-07-25 22:45:00,
2013-07-25 17:50:00,77.8,60.8,30.06,SSW,194,0.0,0.0,56,0.00,,,0.00,Wunderground v.1.15,2013-07-25 22:50:00,
2013-07-25 17:55:00,77.8,61.3,30.06,SSW,194,0.0,7.0,57,0.00,,,0.00,Wunderground v.1.15,2013-07-25 22:55:00,
2013-07-25 18:00:00,77.7,60.8,30.06,SSW,194,0.0,0.0,56,0.00,,,0.00,Wunderground v.1.15,2013-07-25 23:00:00,
2013-07-25 18:05:00,77.6,59.1,30.06,SSW,194,0.0,0.0,53,0.00,,,0.00,Wunderground v.1.15,2013-07-25 23:05:00,
2013-07-25 18:10:00,77.5,60.1,30.06,SSW,192,1.0,1.0,55,0.00,,,0.00,Wunderground v.1.15,2013-07-25 23:10:00,
2013-07-25 18:15:00,77.4,61.9,30.06,SSW,192,1.0,1.0,59,0.00,,,0.00,Wunderground v.1.15,2013-07-25 23:15:00,
2013-07-25 18:20:00,77.1,61.7,30.06,SSW,192,0.0,0.0,59,0.00,,,0.00,Wunderground v.1.15,2013-07-25 23:20:00,
2013-07-25 18:25:00,76.9,61.0,30.06,SSW,192,0.0,0.0,58,0.00,,,0.00,Wunderground v.1.15,2013-07-25 23:25:00,
2013-07-25 18:30:00,76.7,61.3,30.06,SSW,192,0.0,0.0,59,0.00,,,0.00,Wunderground v.1.15,2013-07-25 23:30:00,
2013-07-25 18:35:00,76.6,62.1,30.06,SSW,192,0.0,0.0,61,0.00,,,0.00,Wunderground v.1.15,2013-07-25 23:35:00,
2013-07-25 18:40:00,76.6,61.7,30.07,SSW,192,0.0,1.0,60,0.00,,,0.00,Wunderground v.1.15,2013-07-25 23:40:00,
2013-07-25 18:45:00,76.6,61.2,30.06,SSW,192,1.0,1.0,59,0.00,,,0.00,Wunderground v.1.15,2013-07-25 23:45:00,
2013-07-25 18:50:00,76.8,61.9,30.06,SSW,192,1.0,1.0,60,0.00,,,0.00,Wunderground v.1.15,2013-07-25 23:50:00,
2013-07-25 18:55:00,76.8,61.9,30.05,SSW,192,0.0,2.0,60,0.00,,,0.00,Wunderground v.1.15,2013-07-25 23:55:00,
2013-07-25 19:00:00,77.0,62.0,30.05,SSW,192,0.0,0.0,60,0.00,,,0.00,Wunderground v.1.15,2013-07-26 00:00:00,
2013-07-25 19:10:00,76.9,62.4,30.05,SSW,192,0.0,0.0,61,0.00,,,0.00,Wunderground v.1.15,2013-07-26 00:10:00,
2013-07-25 19:15:00,76.5,61.1,30.06,SSW,192,1.0,3.0,59,0.00,,,0.00,Wunderground v.1.15,2013-07-26 00:15:00,
2013-07-25 19:20:00,76.0,60.6,30.06,SSW,196,2.0,2.0,59,0.00,,,0.00,Wunderground v.1.15,2013-07-26 00:20:00,
2013-07-25 19:25:00,75.5,60.6,30.05,SSW,196,1.0,2.0,60,0.00,,,0.00,Wunderground v.1.15,2013-07-26 00:25:00,
2013-07-25 19:30:00,75.2,60.8,30.05,SSW,196,2.0,2.0,61,0.00,,,0.00,Wunderground v.1.15,2013-07-26 00:30:00,
2013-07-25 19:35:00,74.7,61.3,30.05,SSW,196,2.0,2.0,63,0.00,,,0.00,Wunderground v.1.15,2013-07-26 00:35:00,
2013-07-25 19:40:00,74.1,61.6,30.06,SSW,195,2.0,2.0,65,0.00,,,0.00,Wunderground v.1.15,2013-07-26 00:40:00,
2013-07-25 19:45:00,73.6,62.8,30.06,SSW,195,1.0,2.0,69,0.00,,,0.00,Wunderground v.1.15,2013-07-26 00:45:00,
2013-07-25 19:50:00,73.3,62.5,30.06,SSW,195,0.0,0.0,69,0.00,,,0.00,Wunderground v.1.15,2013-07-26 00:50:00,
2013-07-25 19:55:00,72.9,61.7,30.06,SSW,195,1.0,2.0,68,0.00,,,0.00,Wunderground v.1.15,2013-07-26 00:55:00,
2013-07-25 20:00:00,72.6,61.8,30.06,SSW,195,1.0,1.0,69,0.00,,,0.00,Wunderground v.1.15,2013-07-26 01:00:00,
2013-07-25 20:05:00,72.4,63.3,30.05,SSW,195,1.0,1.0,73,0.00,,,0.00,Wunderground v.1.15,2013-07-26 01:05:00,
2013-07-25 20:10:00,71.9,63.2,30.05,SSW,196,0.0,0.0,74,0.00,,,0.00,Wunderground v.1.15,2013-07-26 01:10:00,
2013-07-25 20:15:00,71.5,63.2,30.05,SSW,195,0.0,0.0,75,0.00,,,0.00,Wunderground v.1.15,2013-07-26 01:15:00,
2013-07-25 20:20:00,71.0,63.4,30.05,SSW,195,0.0,0.0,77,0.00,,,0.00,Wunderground v.1.15,2013-07-26 01:20:00,
2013-07-25 20:25:00,70.4,63.2,30.05,SSW,195,0.0,0.0,78,0.00,,,0.00,Wunderground v.1.15,2013-07-26 01:25:00,
2013-07-25 20:30:00,70.0,63.5,30.06,SSW,195,0.0,0.0,80,0.00,,,0.00,Wunderground v.1.15,2013-07-26 01:30:00,
2013-07-25 20:35:00,69.6,63.9,30.05,SSW,195,0.0,0.0,82,0.00,,,0.00,Wunderground v.1.15,2013-07-26 01:35:00,
2013-07-25 20:40:00,69.1,62.7,30.05,SSW,195,0.0,0.0,80,0.00,,,0.00,Wunderground v.1.15,2013-07-26 01:40:00,
2013-07-25 20:45:00,68.9,63.2,30.06,SSW,195,0.0,0.0,82,0.00,,,0.00,Wunderground v.1.15,2013-07-26 01:45:00,
2013-07-25 20:55:00,68.5,63.1,30.06,SSW,196,0.0,2.0,83,0.00,,,0.00,Wunderground v.1.15,2013-07-26 01:55:00,
2013-07-25 21:00:00,68.3,62.9,30.06,SSW,195,0.0,0.0,83,0.00,,,0.00,Wunderground v.1.15,2013-07-26 02:00:00,
2013-07-25 21:05:00,68.1,62.0,30.07,SSW,195,0.0,2.0,81,0.00,,,0.00,Wunderground v.1.15,2013-07-26 02:05:00,
2013-07-25 21:10:00,68.2,62.1,30.07,SSW,195,1.0,2.0,81,0.00,,,0.00,Wunderground v.1.15,2013-07-26 02:10:00,
2013-07-25 21:15:00,68.3,61.9,30.07,SSW,195,1.0,2.0,80,0.00,,,0.00,Wunderground v.1.15,2013-07-26 02:15:00,
2013-07-25 21:20:00,68.2,61.8,30.07,SSW,195,2.0,2.0,80,0.00,,,0.00,Wunderground v.1.15,2013-07-26 02:20:00,
2013-07-25 21:25:00,67.9,61.5,30.07,SSW,195,2.0,2.0,80,0.00,,,0.00,Wunderground v.1.15,2013-07-26 02:25:00,
2013-07-25 21:30:00,68.0,60.9,30.07,SSW,195,2.0,3.0,78,0.00,,,0.00,Wunderground v.1.15,2013-07-26 02:30:00,
2013-07-25 21:35:00,68.0,60.9,30.07,SSW,195,2.0,3.0,78,0.00,,,0.00,Wunderground v.1.15,2013-07-26 02:35:00,
2013-07-25 21:40:00,68.1,61.0,30.07,SSW,195,1.0,1.0,78,0.00,,,0.00,Wunderground v.1.15,2013-07-26 02:40:00,
2013-07-25 21:45:00,68.3,61.9,30.08,SSW,195,0.0,1.0,80,0.00,,,0.00,Wunderground v.1.15,2013-07-26 02:45:00,
2013-07-25 21:50:00,68.2,61.1,30.08,SSW,195,0.0,0.0,78,0.00,,,0.00,Wunderground v.1.15,2013-07-26 02:50:00,
2013-07-25 21:55:00,68.1,61.0,30.08,SSW,193,1.0,2.0,78,0.00,,,0.00,Wunderground v.1.15,2013-07-26 02:55:00,
2013-07-25 22:00:00,68.2,60.7,30.08,South,181,2.0,2.0,77,0.00,,,0.00,Wunderground v.1.15,2013-07-26 03:00:00,
2013-07-25 22:05:00,68.2,60.7,30.07,South,175,2.0,4.0,77,0.00,,,0.00,Wunderground v.1.15,2013-07-26 03:05:00,
2013-07-25 22:10:00,68.1,60.6,30.07,South,184,3.0,3.0,77,0.00,,,0.00,Wunderground v.1.15,2013-07-26 03:10:00,
2013-07-25 22:15:00,68.1,60.6,30.08,South,175,2.0,3.0,77,0.00,,,0.00,Wunderground v.1.15,2013-07-26 03:15:00,
2013-07-25 22:20:00,68.1,60.6,30.07,South,178,2.0,2.0,77,0.00,,,0.00,Wunderground v.1.15,2013-07-26 03:20:00,